Weather History for KBTA - February, 2014

Change the Weather History Date:

Friday, February 14, 2014

  Actual Average (KOMA) Record (KOMA)
Temperature  
Mean Temperature 22 °F 28 °F  
Max Temperature 28 °F 38 °F 72 °F (1967)
Min Temperature 17 °F 18 °F -18 °F (1936)
Degree Days  
Heating Degree Days 42 37  
Month to date heating degree days 546  
Since 1 July heating degree days 4311  
Cooling Degree Days 0 0  
Month to date cooling degree days 0  
Year to date cooling degree days 0  
Moisture  
Dew Point 13 °F    
Average Humidity 69    
Maximum Humidity 87    
Minimum Humidity 49    
Precipitation  
Precipitation 0.01 in 0.03 in 0.62 in (1969)
Month to date precipitation 0.38  
Year to date precipitation 1.10  
Snow  
Snow 0.00 in 0.20 in - ()
Month to date snowfall 3.2  
Since 1 July snowfall 18.3  
Snow Depth -    
Sea Level Pressure  
Sea Level Pressure 29.92 in    
Wind  
Wind Speed 11 mph (North)    
Max Wind Speed 21 mph    
Max Gust Speed 26 mph    
Visibility 10 miles    
Events Snow    
T = Trace of Precipitation, MM = Missing Value Source: NWS Daily Summary

Daily Weather History Graph

Daily Weather History Graph

Search for Another Location

Airport or City:

Trip Planner

Search our weather history database for the weather conditions in past years. The results will help you decide how hot, cold, wet, or windy it might be!

Date:

Astronomy

Feb. 14, 2014 Rise Set
Actual Time 7:20 AM CST 5:57 PM CST
Civil Twilight 6:52 AM CST 6:25 PM CST
Nautical Twilight 6:19 AM CST 6:57 PM CST
Astronomical Twilight 5:47 AM CST 7:30 PM CST
Moon 6:02 PM CST (2/14) 6:47 AM CST (2/14)
Length of Visible Light 11h 33m
Length of Day
10h 36m
Full, 100% of the Moon is Illuminated
Feb 14
Full
Feb 14
Full
Feb 22
Last Quarter
Mar 1
New
Mar 8
First Quarter

Hourly Weather History & Observations

Time (CST) Temp. Windchill Dew Point Humidity Pressure Visibility Wind Dir Wind Speed Gust Speed Precip Events Conditions
12:15 AM 26.1 °F 17.6 °F 16.0 °F 66% 29.73 in 10.0 mi NNE 8.1 mph - N/A   Overcast
12:35 AM 25.7 °F 17.1 °F 16.0 °F 67% 29.70 in 5.0 mi East 8.1 mph - N/A Snow Light Snow
12:55 AM 24.6 °F 14.4 °F 18.1 °F 76% 29.69 in 7.0 mi NE 10.4 mph - N/A Snow Light Snow
1:15 AM 23.9 °F 13.5 °F 19.0 °F 82% 29.67 in 10.0 mi East 10.4 mph - N/A   Overcast
1:35 AM 23.2 °F 13.3 °F 18.7 °F 83% 29.67 in 10.0 mi ENE 9.2 mph - N/A   Overcast
1:55 AM 23.0 °F 12.4 °F 19.0 °F 85% 29.66 in 10.0 mi NE 10.4 mph - N/A   Overcast
2:15 AM 22.8 °F 11.5 °F 19.0 °F 85% 29.70 in 7.0 mi North 11.5 mph - N/A Snow Light Snow
2:35 AM 22.6 °F 9.2 °F 19.0 °F 86% 29.63 in 3.0 mi East 16.1 mph - N/A Snow Light Snow
2:55 AM 22.6 °F 8.3 °F 19.2 °F 87% 29.70 in 10.0 mi NNW 18.4 mph 21.9 mph N/A   Overcast
3:15 AM 22.6 °F 12.6 °F 18.9 °F 85% 29.67 in 10.0 mi NNE 9.2 mph - N/A   Overcast
3:35 AM 22.8 °F 11.5 °F 18.1 °F 82% 29.69 in 10.0 mi NNW 11.5 mph - N/A   Overcast
3:55 AM 22.5 °F 11.7 °F 17.2 °F 80% 29.70 in 10.0 mi North 10.4 mph - N/A   Overcast
4:15 AM 22.1 °F 10.6 °F 17.6 °F 83% 29.69 in 10.0 mi North 11.5 mph - N/A   Overcast
4:35 AM 21.6 °F 11.3 °F 18.1 °F 87% 29.69 in 10.0 mi North 9.2 mph - N/A   Overcast
4:55 AM 21.7 °F 9.6 °F 18.1 °F 86% 29.73 in 10.0 mi North 12.7 mph - N/A   Overcast
5:15 AM 21.0 °F 7.6 °F 15.8 °F 80% 29.74 in 10.0 mi NNW 15.0 mph 21.9 mph N/A   Overcast
5:35 AM 20.1 °F 5.4 °F 14.9 °F 80% 29.76 in 10.0 mi NNW 17.3 mph 21.9 mph N/A   Overcast
5:55 AM 19.6 °F 4.7 °F 14.4 °F 80% 29.78 in 10.0 mi NNW 17.3 mph 26.5 mph N/A   Overcast
6:15 AM 19.2 °F 4.3 °F 13.5 °F 78% 29.78 in 10.0 mi North 17.3 mph - N/A   Overcast
6:35 AM 18.7 °F 5.1 °F 12.6 °F 77% 29.80 in 10.0 mi NNW 13.8 mph 19.6 mph N/A   Overcast
6:55 AM 18.7 °F 5.1 °F 12.2 °F 76% 29.82 in 10.0 mi North 13.8 mph - N/A   Overcast
7:15 AM 18.3 °F 5.2 °F 12.0 °F 76% 29.84 in 10.0 mi North 12.7 mph - N/A   Overcast
7:35 AM 18.1 °F 3.4 °F 11.8 °F 76% 29.85 in 10.0 mi NNW 16.1 mph - N/A   Overcast
7:55 AM 18.0 °F 3.1 °F 12.2 °F 78% 29.86 in 10.0 mi North 16.1 mph - N/A   Overcast
8:15 AM 17.6 °F 3.2 °F 12.2 °F 79% 29.86 in 10.0 mi North 15.0 mph - N/A   Overcast
8:35 AM 18.1 °F 3.4 °F 12.6 °F 79% 29.88 in 10.0 mi North 16.1 mph - N/A   Overcast
8:55 AM 17.8 °F 3.4 °F 12.2 °F 79% 29.90 in 10.0 mi NNW 15.0 mph 23.0 mph N/A   Overcast
9:15 AM 17.6 °F 2.7 °F 12.0 °F 79% 29.92 in 10.0 mi North 16.1 mph 25.3 mph N/A   Overcast
9:35 AM 17.6 °F 2.2 °F 12.7 °F 81% 29.93 in 7.0 mi NNW 17.3 mph 23.0 mph N/A   Overcast
9:55 AM 18.1 °F 3.9 °F 13.1 °F 81% 29.93 in 10.0 mi North 15.0 mph - N/A   Overcast
10:15 AM 18.7 °F 4.6 °F 12.9 °F 78% 29.94 in 10.0 mi NNW 15.0 mph - N/A   Overcast
10:35 AM 20.1 °F 5.9 °F 12.9 °F 74% 29.96 in 10.0 mi North 16.1 mph 20.7 mph N/A   Mostly Cloudy
10:55 AM 20.7 °F 5.7 °F 12.9 °F 72% 29.97 in 10.0 mi NNW 18.4 mph 21.9 mph N/A   Clear
11:15 AM 21.6 °F 6.1 °F 13.1 °F 70% 29.98 in 10.0 mi North 20.7 mph 24.2 mph 0.01 in   Scattered Clouds
11:35 AM 22.1 °F 8.5 °F 13.5 °F 69% 29.99 in 10.0 mi North 16.1 mph 21.9 mph 0.01 in   Scattered Clouds
11:55 AM 22.5 °F 9.9 °F 13.6 °F 69% 30.00 in 10.0 mi NNW 13.8 mph - 0.01 in   Scattered Clouds
12:15 PM 23.4 °F 11.1 °F 14.2 °F 68% 30.01 in 10.0 mi NNW 13.8 mph 19.6 mph N/A   Scattered Clouds
12:35 PM 23.9 °F 12.9 °F 14.7 °F 68% 30.00 in 10.0 mi NW 11.5 mph - N/A   Scattered Clouds
12:55 PM 25.2 °F 13.3 °F 15.1 °F 66% 30.00 in 10.0 mi NNW 13.8 mph 20.7 mph N/A   Scattered Clouds
1:15 PM 25.5 °F 14.9 °F 14.9 °F 64% 30.00 in 10.0 mi NW 11.5 mph 19.6 mph N/A   Scattered Clouds
1:35 PM 26.1 °F 13.1 °F 14.9 °F 63% 30.00 in 10.0 mi NNW 17.3 mph 20.7 mph N/A   Scattered Clouds
1:55 PM 26.8 °F 15.4 °F 14.4 °F 60% 30.00 in 10.0 mi NNW 13.8 mph 24.2 mph N/A   Scattered Clouds
2:15 PM 27.1 °F 14.9 °F 13.6 °F 57% 30.00 in 10.0 mi NNW 16.1 mph 20.7 mph N/A   Clear
2:35 PM 27.7 °F 14.5 °F 12.9 °F 54% 30.00 in 10.0 mi North 19.6 mph 25.3 mph N/A   Clear
2:55 PM 28.0 °F 16.5 °F 13.1 °F 54% 30.00 in 10.0 mi North 15.0 mph 23.0 mph N/A   Clear
3:15 PM 28.4 °F 17.5 °F 12.2 °F 51% 30.01 in 10.0 mi NW 13.8 mph - N/A   Clear
3:35 PM 28.2 °F 17.2 °F 12.0 °F 51% 30.01 in 10.0 mi North 13.8 mph 20.7 mph N/A   Clear
3:55 PM 28.4 °F 18.5 °F 12.2 °F 51% 30.02 in 10.0 mi NNW 11.5 mph 19.6 mph N/A   Clear
4:15 PM 28.0 °F 17.5 °F 11.8 °F 51% 30.02 in 10.0 mi NW 12.7 mph - N/A   Clear
4:35 PM 27.9 °F 18.4 °F 11.1 °F 50% 30.02 in 10.0 mi NW 10.4 mph - N/A   Clear
4:55 PM 27.7 °F 17.6 °F 10.8 °F 49% 30.04 in 10.0 mi NW 11.5 mph - N/A   Clear
5:15 PM 27.3 °F 17.7 °F 10.4 °F 49% 30.05 in 10.0 mi NNW 10.4 mph - N/A   Clear
5:35 PM 26.6 °F 17.5 °F 10.8 °F 51% 30.06 in 10.0 mi NW 9.2 mph - N/A   Clear
5:55 PM 25.2 °F 15.7 °F 10.8 °F 54% 30.06 in 10.0 mi NNW 9.2 mph - N/A   Clear
6:15 PM 23.9 °F 15.0 °F 10.0 °F 56% 30.06 in 10.0 mi NNW 8.1 mph - N/A   Clear
6:35 PM 23.4 °F 15.2 °F 9.5 °F 55% 30.06 in 10.0 mi North 6.9 mph - N/A   Clear
6:55 PM 22.6 °F 15.3 °F 9.3 °F 57% 30.04 in 10.0 mi NNW 5.8 mph - N/A   Clear
7:15 PM 22.6 °F 16.5 °F 8.6 °F 55% 30.04 in 10.0 mi NNW 4.6 mph - N/A   Clear
7:35 PM 22.1 °F 14.7 °F 8.6 °F 56% 30.03 in 10.0 mi North 5.8 mph - N/A   Clear
7:55 PM 22.1 °F 13.7 °F 8.6 °F 56% 30.04 in 10.0 mi North 6.9 mph - N/A   Clear
8:15 PM 21.6 °F 14.0 °F 8.6 °F 57% 30.04 in 10.0 mi North 5.8 mph - N/A   Clear
8:35 PM 20.1 °F 15.2 °F 8.6 °F 61% 30.05 in 10.0 mi West 3.5 mph - N/A   Clear
8:55 PM 18.7 °F 13.5 °F 9.0 °F 66% 30.07 in 10.0 mi NW 3.5 mph - N/A   Clear
9:15 PM 18.9 °F - 9.5 °F 67% 30.06 in 10.0 mi Calm Calm - N/A   Clear
9:35 PM 18.5 °F 10.4 °F 9.5 °F 68% 30.06 in 10.0 mi NE 5.8 mph - N/A   Clear
9:55 PM 19.2 °F 10.2 °F 9.5 °F 66% 30.06 in 10.0 mi NE 6.9 mph - N/A   Clear
10:15 PM 19.2 °F 9.3 °F 8.8 °F 64% 30.03 in 10.0 mi NE 8.1 mph - N/A   Clear
10:35 PM 18.9 °F 12.1 °F 9.1 °F 66% 30.04 in 10.0 mi NE 4.6 mph - N/A   Clear
10:55 PM 19.2 °F 14.1 °F 9.3 °F 65% 30.03 in 10.0 mi East 3.5 mph - N/A   Clear
11:15 PM 18.9 °F 13.7 °F 9.9 °F 68% 30.03 in 10.0 mi East 3.5 mph - N/A   Clear
11:35 PM 18.5 °F 10.4 °F 10.2 °F 70% 30.03 in 10.0 mi ESE 5.8 mph - N/A   Clear
11:55 PM 18.5 °F 10.4 °F 9.5 °F 68% 30.01 in 10.0 mi ESE 5.8 mph - N/A   Clear